Location: Nianha
(10.8000°N, 4.6333°W)
Time: 17:29:19
(UTC+00:00)

Ariane H10-3 - Pass Details

Date: 14 November 2019
Orbit: 465 x 36461 km, 5.2° (Epoch: 20 January)

Event Time Altitude Azimuth Distance (km) Brightness Sun altitude
Exits shadow 03:05:12 31° 134° (SE) 2,055 4.4 -45.4°
Drops below altitude 10° 03:15:48 10° 97° (E) 6,549 7.3 -42.9°
Sets 03:30:16 0° 90° (E) 11,938 8.9 -39.4°
